Regional Weather Roundup
Issued by NWS

Home | Current Version | Previous Version | Text Only | Print | Product List | Glossary On
Versions: 1 2 3 4 5 6 7 8 9 10 11 12 13 14 15 16 17 18 19 20 21 22 23 24 25 26 27 28 29 30 31 32 33 34 35 36 37 38 39 40 41 42 43 44 45 46 47 48 49 50
000
ASUS45 KSLC 011110
RWRUT

UTAH REGIONAL WEATHER ROUNDUP
NATIONAL WEATHER SERVICE SALT LAKE CITY UT
500 AM MDT TUE SEP 01 2015

UTZ001>011-023>025-011200-

NORTHERN UTAH

CITY           SKY/WX    TMP DP  RH WIND       PRES   REMARKS
BRIGHAM CITY   CLEAR     58  42  54 NW6       29.97S
HILL AFB       MOCLDY    67  38  34 E15       29.99S
LOGAN          CLEAR     52  41  66 CALM      30.00S
OGDEN          PTCLDY    66  39  37 S9        29.97R
PROVO AIRPORT  PTCLDY    63  45  51 SE14      30.02S
SALT LAKE CITY MOCLDY    74  47  38 SE15      29.95S
VERNAL         CLEAR     56  45  66 W5        30.13R
WENDOVER       PTCLDY    63  37  39 NE3       29.96S
HEBER CITY     PTCLDY    54  45  71 CALM      30.11S
WEST JORDAN    CLEAR     72  45  37 S17       29.98F

$$

UTZ012>022-026-027-011200-

SOUTHERN/CENTRAL UTAH

CITY           SKY/WX    TMP DP  RH WIND       PRES   REMARKS
BLANDING       CLEAR     56  48  74 NE7       30.26S
BRYCE CANYON   MOCLDY    49  45  86 W5        30.29F
CEDAR CITY     MOCLDY    63  45  51 CALM      30.12S
DELTA          PTCLDY    67  43  41 S10       30.04R
HANKSVILLE     CLEAR     61  48  63 CALM      30.08R
MILFORD        CLEAR     66  46  48 S10       30.06R
MOAB/CYNLANDS  CLEAR     63  50  62 CALM      30.06R
PRICE          CLEAR     57  48  72 NE5       30.15S
ST GEORGE      MOSUNNY   79  54  41 SE8       29.97R
KANAB            N/A     63  57  82 CALM      30.18S

$$

REGIONAL REPORTS     COLORADO/ARIZONA

CITY           SKY/WX    TMP DP  RH WIND       PRES   REMARKS
CRAIG, CO      CLEAR     47  42  83 CALM      30.21S
GRAND JUNCTION PTCLDY    59  52  77 SE7       30.11R
RIFLE          PTCLDY    53  49  86 CALM      30.19S
MONTROSE       CLEAR     57  47  69 S9        30.20R
CORTEZ         CLEAR     53  45  74 NE7       30.21S
PAGE, AZ       PTCLDY    71  53  52 S9        30.08S
GRAND CANYON   PTCLDY    58  51  78 S5          N/A
KINGMAN        CLEAR     75  49  39 SE10      30.00R
FLAGSTAFF      MOCLDY    53  51  93 CALM      30.30F

$$

REGIONAL REPORTS    NEVADA/IDAHO/WYOMING

CITY           SKY/WX    TMP DP  RH WIND       PRES   REMARKS
LAS VEGAS, NV  CLEAR     83  41  22 S5        29.81S
ELY            PTCLDY    61  39  44 S12       30.12S
ELKO           PTCLDY    50  28  42 CALM      30.03R
POCATELLO, ID  CLEAR     45  36  70 CALM      30.01R
BURLEY         CLEAR     48  42  80 SW3       29.96F
EVANSTON, WY   CLEAR     54  39  57 SE8       30.18S
ROCK SPRINGS   CLEAR     55  41  59 SE9       30.16S
KEMMERER       CLEAR     43  30  61 N12       30.20R

$$


USA.gov is the U.S. government's official web portal to all federal, state and local government web resources and services.